N7WWK-1 Weather Reports


Display with metric or nautical units.
time (UTC)temp
F
wind
direction
speed
MPH
gust
MPH
rain 1hr
in
rain 24hr
in
rain mn
in
humidity
%
barometer
mb
20260505035004 66 93 0.0 1.0 0.00 0.00 0.00 80 1015.0
20260505034004 66 80 0.0 2.0 0.00 0.00 0.00 79 1015.1
20260505033004 67 94 0.0 2.0 0.00 0.00 0.00 79 1014.9
20260505032214 67 82 1.0 4.0 0.00 0.00 0.00 78 1015.0
20260505031215 67 87 0.0 2.0 0.00 0.00 0.00 78 1014.7
20260505030005 67 89 0.0 2.0 0.00 0.00 0.00 77 1015.0
20260505025004 68 97 0.0 3.0 0.00 0.00 0.00 76 1015.0
20260505024005 68 89 0.0 1.0 0.00 0.00 0.00 75 1014.9
20260505023004 68 100 0.0 3.0 0.00 0.00 0.00 75 1014.9
20260505022004 68 94 0.0 2.0 0.00 0.00 0.00 74 1015.0
20260505021005 68 89 0.0 2.0 0.00 0.00 0.00 74 1015.0
20260505020006 68 67 0.0 3.0 0.00 0.00 0.00 75 1015.0
20260505015004 69 81 0.0 1.0 0.00 0.00 0.00 74 1014.7
20260505014005 69 76 0.0 2.0 0.00 0.00 0.00 73 1014.9
20260505013004 69 82 1.0 4.0 0.00 0.00 0.00 72 1014.6
20260505012004 69 85 1.0 3.0 0.00 0.00 0.00 71 1014.6
20260505011216 69 83 0.0 1.0 0.00 0.00 0.00 71 1014.6
20260505010005 70 81 1.0 4.0 0.00 0.00 0.00 69 1014.3
20260505005005 70 91 0.0 1.0 0.00 0.00 0.00 69 1014.6
20260505004005 71 94 1.0 4.0 0.00 0.00 0.00 68 1014.5
20260505003004 71 89 1.0 4.0 0.00 0.00 0.00 67 1014.3
20260505002004 71 82 1.0 7.0 0.00 0.00 0.00 66 1014.4
20260505001005 72 78 2.0 7.0 0.00 0.00 0.00 66 1014.3
20260505000005 72 94 1.0 4.0 0.00 0.00 0.00 65 1014.1
20260504235004 72 81 2.0 8.0 0.00 0.00 0.00 64 1013.9
20260504234005 73 89 2.0 4.0 0.00 0.00 0.00 63 1013.8
20260504233215 73 83 2.0 7.0 0.00 0.00 0.00 62 1013.7
20260504232004 74 88 2.0 8.0 0.00 0.00 0.00 61 1013.4
20260504231005 74 85 2.0 9.0 0.00 0.00 0.00 61 1013.4
20260504230005 75 83 2.0 7.0 0.00 0.00 0.00 60 1013.7
20260504225004 76 87 1.0 4.0 0.00 0.00 0.00 59 1013.3
20260504224005 77 80 2.0 9.0 0.00 0.00 0.00 58 1013.2
20260504223005 77 86 2.0 9.0 0.00 0.00 0.00 57 1013.4
20260504222004 78 93 1.0 4.0 0.00 0.00 0.00 56 1013.6
20260504221005 77 72 3.0 8.0 0.00 0.00 0.00 56 1013.6
20260504220005 78 79 2.0 10.0 0.00 0.00 0.00 54 1013.4
20260504215005 78 92 2.0 9.0 0.00 0.00 0.00 55 1013.5
20260504214216 79 89 2.0 6.0 0.00 0.00 0.00 53 1013.5
20260504213005 78 90 2.0 9.0 0.00 0.00 0.00 53 1013.5
20260504212218 78 86 2.0 8.0 0.00 0.00 0.00 53 1013.6
20260504211005 79 97 2.0 4.0 0.00 0.00 0.00 52 1013.4
20260504210005 79 82 2.0 8.0 0.00 0.00 0.00 52 1013.3
20260504205005 79 73 3.0 10.0 0.00 0.00 0.00 52 1013.9
20260504204005 80 83 2.0 6.0 0.00 0.00 0.00 50 1013.8
20260504203217 79 69 3.0 8.0 0.00 0.00 0.00 50 1013.7
20260504202005 80 119 1.0 3.0 0.00 0.00 0.00 49 1014.0
20260504201005 79 93 2.0 8.0 0.00 0.00 0.00 50 1014.1
20260504200005 80 81 2.0 4.0 0.00 0.00 0.00 48 1013.8
20260504195216 80 85 2.0 10.0 0.00 0.00 0.00 48 1013.9
20260504194005 79 97 2.0 6.0 0.00 0.00 0.00 51 1014.3
20260504193005 80 76 3.0 10.0 0.00 0.00 0.00 48 1014.1
20260504192005 80 81 3.0 11.0 0.00 0.00 0.00 48 1014.4
20260504191215 80 88 2.0 11.0 0.00 0.00 0.00 47 1014.3
20260504190005 80 93 2.0 8.0 0.00 0.00 0.00 46 1014.5
20260504185217 80 81 3.0 7.0 0.00 0.00 0.00 45 1014.8
20260504184005 80 87 3.0 7.0 0.00 0.00 0.00 46 1014.9
20260504183005 80 93 2.0 11.0 0.00 0.00 0.00 45 1014.9
20260504182005 80 84 2.0 6.0 0.00 0.00 0.00 45 1015.3
20260504181005 80 79 2.0 9.0 0.00 0.00 0.00 43 1015.1
20260504180005 80 91 2.0 7.0 0.00 0.00 0.00 43 1015.1
20260504175005 79 81 2.0 6.0 0.00 0.00 0.00 43 1015.2
20260504174005 80 79 3.0 11.0 0.00 0.00 0.00 42 1015.4
20260504173214 80 81 2.0 6.0 0.00 0.00 0.00 42 1015.2
20260504172005 78 78 3.0 8.0 0.00 0.00 0.00 43 1015.4
20260504171005 78 82 3.0 10.0 0.00 0.00 0.00 43 1015.7
20260504151005 76 92 2.0 6.0 0.00 0.00 0.00 47 1016.2
20260504141005 75 77 2.0 7.0 0.00 0.00 0.00 51 1016.4
20260504140219 74 86 2.0 7.0 0.00 0.00 0.00 50 1016.1
20260504120215 66 105 0.0 1.0 0.00 0.00 0.00 86 1015.9
20260504082005 60 0 0.0 0.0 0.00 0.00 0.00 95 1015.3
20260504081005 59 0 0.0 0.0 0.00 0.00 0.00 95 1015.0
20260504070218 61 0 0.0 0.0 0.00 0.00 0.00 92 1015.2
20260504050006 64 95 0.0 1.0 0.00 0.00 0.00 83 1016.5
20260504045215 65 0 0.0 0.0 0.00 0.00 0.00 82 1016.4
20260504044005 65 89 0.0 2.0 0.00 0.00 0.00 81 1016.6
20260504043005 65 91 0.0 2.0 0.00 0.00 0.00 80 1016.3
20260504042005 65 82 0.0 3.0 0.00 0.00 0.00 79 1016.4
20260504041005 65 107 0.0 1.0 0.00 0.00 0.00 78 1016.6
20260504040022 65 105 0.0 3.0 0.00 0.00 0.00 77 1016.2